Weather History for Crestview, FL

Change the Weather History Date:

Saturday, June 29, 2013

  Actual Average Record
Temperature  
Mean Temperature 79 °F -  
Max Temperature 87 °F - - ()
Min Temperature 71 °F - - ()
Cooling Degree Days 14    
Growing Degree Days 29 (Base 50)    
Moisture  
Dew Point 72 °F    
Average Humidity 87    
Maximum Humidity 100    
Minimum Humidity 63    
Precipitation  
Precipitation 0.26 in - - ()
Sea Level Pressure  
Sea Level Pressure 29.76 in    
Wind  
Wind Speed 6 mph (ESE)    
Max Wind Speed 13 mph    
Max Gust Speed -    
Visibility 9 miles    
Events Rain , Thunderstorm    
T = Trace of Precipitation, MM = Missing Value Source: NWS Daily Summary

Daily Weather History Graph

Daily Weather History Graph

Search for Another Location

Airport:

Trip Planner

Search our weather history database for the weather conditions in past years. The results will help you decide how hot, cold, wet, or windy it might be!

Date:

Astronomy

Jun. 29, 2013 Rise Set
Actual Time 5:46 AM CDT 7:52 PM CDT
Civil Twilight 5:18 AM CDT 8:20 PM CDT
Nautical Twilight 4:45 AM CDT 8:54 PM CDT
Astronomical Twilight 4:08 AM CDT 9:30 PM CDT
Moon No Moon Rise 12:26 PM CDT (6/29)
Length of Visible Light 15h 01m
Length of Day
14h 06m
Waning Gibbous, 55% of the Moon is Illuminated
Jun 29
Waning Gibbous
Jun 29
Last Quarter
Jul 8
New
Jul 15
First Quarter
Jul 22
Full

Hourly Weather History & Observations

Time (CDT) Temp. Heat Index Dew Point Humidity Pressure Visibility Wind Dir Wind Speed Gust Speed Precip Events Conditions
12:58 AM 81.5 °F 90.2 °F 78.8 °F 91% 29.79 in 10.0 mi Calm Calm - N/A   Partly Cloudy
1:13 AM 77.0 °F - 73.4 °F 89% 29.79 in 10.0 mi NE 8.1 mph - N/A   Mostly Cloudy
1:58 AM 74.8 °F - 70.3 °F 86% 29.76 in 10.0 mi ENE 8.1 mph - N/A   Mostly Cloudy
2:03 AM 75.2 °F - 69.8 °F 83% 29.76 in 10.0 mi ENE 6.9 mph - N/A   Mostly Cloudy
2:18 AM 75.2 °F - 69.8 °F 83% 29.76 in 10.0 mi NE 2.3 mph - N/A   Scattered Clouds
2:33 AM 75.2 °F - 69.8 °F 83% 29.75 in 10.0 mi NE 5.8 mph - N/A   Scattered Clouds
2:58 AM 74.7 °F - 70.5 °F 87% 29.74 in 10.0 mi NE 5.8 mph - N/A   Partly Cloudy
3:38 AM 73.4 °F - 69.8 °F 88% 29.77 in 10.0 mi NNW 6.9 mph - N/A Thunderstorm Thunderstorm
3:53 AM 73.4 °F - 71.6 °F 94% 29.79 in 10.0 mi NNW 9.2 mph - N/A Thunderstorm Thunderstorm
3:54 AM 73.4 °F - 71.6 °F 94% 29.79 in 10.0 mi NNW 6.9 mph - N/A Thunderstorm Mostly Cloudy
3:58 AM 73.2 °F - 70.9 °F 92% 29.79 in 10.0 mi Variable 6.9 mph - N/A Thunderstorm Scattered Clouds
3:59 AM 73.4 °F - 71.6 °F 94% 29.79 in 9.0 mi Variable 6.9 mph - N/A Rain , Thunderstorm Light Rain
4:36 AM 73.4 °F - 71.6 °F 94% 29.78 in 10.0 mi NNE 9.2 mph - N/A Rain , Thunderstorm Light Thunderstorms and Rain
4:51 AM 73.4 °F - 71.6 °F 94% 29.77 in 2.0 mi ENE 8.1 mph - N/A Rain , Thunderstorm Heavy Thunderstorms and Rain
4:56 AM 71.6 °F - 71.6 °F 100% 29.75 in 1.2 mi East 11.5 mph - N/A Rain , Thunderstorm Heavy Thunderstorms and Rain
4:58 AM 72.5 °F - 71.1 °F 95% 29.75 in 1.2 mi East 11.5 mph - 0.22 in Rain , Thunderstorm Heavy Thunderstorms and Rain
5:03 AM 71.6 °F - 71.6 °F 100% 29.75 in 2.5 mi ENE 12.7 mph - N/A Rain , Thunderstorm Light Thunderstorms and Rain
5:05 AM 73.4 °F - 71.6 °F 94% 29.75 in 6.0 mi East 10.4 mph - N/A Rain , Thunderstorm Light Rain
5:10 AM 73.4 °F - 71.6 °F 94% 29.75 in 10.0 mi ENE 8.1 mph - N/A Rain , Thunderstorm Light Rain
5:55 AM 73.4 °F - 71.6 °F 94% 29.78 in 10.0 mi South 8.1 mph - N/A   Mostly Cloudy
5:58 AM 73.4 °F - 71.6 °F 94% 29.78 in 10.0 mi South 6.9 mph - 0.04 in   Mostly Cloudy
6:29 AM 73.4 °F - 71.6 °F 94% 29.79 in 10.0 mi South 8.1 mph - N/A   Partly Cloudy
6:58 AM 73.9 °F - 73.0 °F 97% 29.78 in 10.0 mi SSE 5.8 mph - N/A   Scattered Clouds
7:03 AM 73.4 °F - 73.4 °F 100% 29.78 in 10.0 mi South 8.1 mph - N/A   Mostly Cloudy
7:13 AM 73.4 °F - 73.4 °F 100% 29.79 in 10.0 mi South 8.1 mph - N/A   Partly Cloudy
7:58 AM 75.0 °F - 73.6 °F 95% 29.80 in 10.0 mi South 8.1 mph - N/A   Clear
8:58 AM 76.5 °F - 74.1 °F 92% 29.80 in 10.0 mi West 4.6 mph - N/A   Clear
9:58 AM 79.2 °F - 74.3 °F 85% 29.79 in 10.0 mi WSW 8.1 mph - N/A   Scattered Clouds
10:58 AM 82.4 °F 87.2 °F 71.6 °F 70% 29.79 in 10.0 mi West 11.5 mph - N/A   Scattered Clouds
11:58 AM 83.8 °F 88.3 °F 70.5 °F 64% 29.79 in 10.0 mi West 10.4 mph - N/A   Mostly Cloudy
2:58 PM 86.4 °F 93.0 °F 72.3 °F 63% 29.75 in 10.0 mi Variable 3.5 mph - N/A   Scattered Clouds
3:58 PM 86.0 °F 93.0 °F 72.9 °F 65% 29.73 in 10.0 mi South 9.2 mph - N/A   Partly Cloudy
4:58 PM 87.1 °F 94.5 °F 73.0 °F 63% 29.71 in 10.0 mi SSE 8.1 mph - N/A   Clear
5:58 PM 85.5 °F 92.6 °F 73.6 °F 67% 29.70 in 10.0 mi South 6.9 mph - N/A   Clear
6:58 PM 83.7 °F 90.4 °F 73.6 °F 72% 29.71 in 10.0 mi South 9.2 mph - N/A   Clear
7:58 PM 81.1 °F 86.2 °F 73.4 °F 77% 29.73 in 10.0 mi South 8.1 mph - N/A   Clear
8:58 PM 79.5 °F - 73.4 °F 81% 29.74 in 10.0 mi SW 6.9 mph - N/A   Scattered Clouds
9:58 PM 77.2 °F - 73.9 °F 90% 29.78 in 10.0 mi NNW 8.1 mph - N/A   Partly Cloudy
10:28 PM 77.0 °F - 73.4 °F 89% 29.75 in 10.0 mi NE 1.2 mph - N/A   Mostly Cloudy
10:38 PM 77.0 °F - 73.4 °F 89% 29.76 in 10.0 mi Calm Calm - N/A   Scattered Clouds
10:43 PM 77.0 °F - 73.4 °F 89% 29.76 in 10.0 mi NE 1.2 mph - N/A   Mostly Cloudy
10:53 PM 77.0 °F - 73.4 °F 89% 29.76 in 10.0 mi East 2.3 mph - N/A   Mostly Cloudy
10:58 PM 77.5 °F - 73.6 °F 88% 29.76 in 10.0 mi Calm Calm - N/A   Mostly Cloudy
11:13 PM 77.0 °F - 73.4 °F 89% 29.77 in 10.0 mi Calm Calm - N/A   Scattered Clouds
11:58 PM 75.9 °F - 72.7 °F 90% 29.75 in 10.0 mi East 4.6 mph - N/A   Clear